Theta_e
313 312 312 312 313 312 313 313 313 313 312 313 313 310 307 307 307 307 307 307 307 309 310 310 311 312 312 310 312 312 312 313 315 315 315 315 315 316 317 316 316 317 316 316 316 316 315
312 312 312 313 312 313 312 311 312 312 313 312 312 309 306 306 306 306 307 307 307 309 309 311 311 312 311 312 312 312 313 314 314 315 314 313 315 314 317 316 317 316 318 317 317 316 314
312 312 311 311 312 312 312 313 313 311 313 312 309 307 305 305 305 306 306 307 307 308 309 309 310 311 309 311 312 313 313 314 313 314 313 313 313 315 315 315 314 317 315 315 316 316 317
311 311 311 311 311 312 312 312 312 312 312 312 309 305 305 306 307 306 306 307 307 308 309 310 311 312 310 311 312 313 314 314 314 314 312 313 313 313 315 315 317 319 316 318 316 315 315
312 311 311 311 311 311 311 311 309 310 310 311 310 306 307 307 306 306 306 307 308 309 309 310 311 311 310 310 311 312 313 314 314 313 313 313 313 314 314 317 317 319 320 316 315 313 315
310 311 312 310 311 310 311 308 306 306 308 309 307 306 307 307 306 306 306 307 309 309 310 309 309 308 308 309 310 311 313 314 314 314 315 315 314 314 315 317 320 320 318 316 314 314 319
310 311 311 310 309 310 308 306 306 306 306 305 306 306 307 306 306 306 307 309 303 304 308 309 309 309 308 310 310 312 312 313 312 314 315 315 315 316 316 316 315 313 315 314 312 313 319
309 310 310 309 309 308 306 306 306 306 305 304 306 306 307 306 306 307 309 304 304 305 306 309 309 308 309 309 310 309 311 312 312 312 310 309 312 310 311 311 312 312 312 312 313 314 318
308 309 309 308 305 306 306 306 306 306 305 304 306 306 307 307 308 306 307 307 308 308 307 307 308 309 308 309 310 310 308 311 312 312 312 312 311 310 311 310 311 309 311 311 314 317 316
309 308 309 307 306 305 306 306 306 306 305 304 306 306 308 308 309 309 307 307 308 308 303 305 307 309 309 308 308 309 308 309 309 312 313 310 309 310 311 311 309 311 309 310 313 314 316
307 308 309 307 306 306 306 307 307 306 305 304 306 306 309 309 308 309 309 307 308 306 301 305 307 308 308 309 309 309 308 308 310 308 308 310 311 311 312 312 311 312 309 312 312 313 314
307 307 307 306 306 307 307 307 307 306 305 305 307 307 309 309 306 307 306 306 307 304 300 307 308 309 309 308 308 307 307 306 307 308 308 309 308 311 312 311 311 310 311 311 309 311 311
307 307 307 306 306 307 308 308 307 306 305 305 307 308 308 308 308 306 306 308 306 303 304 308 310 309 309 309 308 308 308 307 309 305 306 306 309 308 309 310 308 308 312 312 315 315 315
307 308 307 306 306 307 308 308 308 307 306 305 308 308 309 308 307 307 309 304 301 303 307 308 310 309 309 308 308 307 306 306 307 306 302 304 306 308 309 309 310 311 310 310 315 314 312
307 307 306 306 306 307 308 309 308 308 306 305 310 309 310 307 309 309 303 303 304 305 309 310 309 309 308 307 308 306 307 307 307 308 309 308 307 307 310 308 307 310 308 307 309 308 306
307 307 308 307 306 307 308 309 309 308 307 305 310 311 309 307 307 307 303 309 307 307 309 310 310 309 309 306 307 308 307 307 308 307 306 308 310 308 308 308 308 308 307 310 312 316 316
308 308 307 307 306 307 308 309 309 309 308 306 311 308 309 307 308 301 304 305 308 308 308 311 309 309 307 307 305 307 308 307 307 307 306 306 308 307 306 308 310 309 310 308 308 312 313
308 308 308 307 307 307 308 309 310 309 308 305 305 306 308 308 309 300 305 306 308 309 308 310 308 308 308 305 305 306 307 306 307 307 309 306 304 307 307 308 308 309 309 308 309 309 306
309 308 308 307 307 307 308 309 310 309 308 307 304 304 308 307 307 303 304 309 309 309 309 309 309 308 306 307 306 305 305 306 306 306 303 304 305 306 304 304 308 309 307 306 305 305 307
311 309 307 308 307 307 308 309 310 310 308 308 304 309 304 302 301 306 308 308 309 307 309 307 307 306 307 307 304 305 305 306 306 306 307 303 302 306 307 307 306 307 308 307 305 306 304
312 310 308 308 308 307 307 308 309 310 308 308 302 307 304 308 306 306 306 307 308 308 306 306 306 306 306 307 307 305 305 305 306 307 305 301 305 299 301 301 302 303 304 307 306 305 304
313 312 309 309 307 307 307 308 309 310 308 307 303 305 302 302 304 306 306 306 308 308 308 307 307 307 305 306 306 307 306 306 306 305 306 301 306 304 305 304 302 304 302 301 303 306 304
313 313 311 309 308 307 308 308 309 310 308 307 303 303 300 303 304 305 305 306 306 307 307 306 306 306 306 305 304 304 302 303 304 305 304 305 304 305 307 304 304 306 304 303 302 301 303
308 313 313 309 308 308 308 308 309 310 309 306 305 304 301 305 304 305 305 305 306 307 308 308 305 306 305 303 303 303 303 304 303 303 302 304 304 303 307 305 307 306 303 304 304 304 300
305 310 312 311 308 308 308 308 310 310 310 307 305 304 301 303 303 304 304 305 305 306 307 307 305 303 301 304 305 305 304 305 305 304 303 302 303 306 307 308 308 307 304 304 306 306 301
305 307 312 312 308 308 308 308 309 310 310 308 306 305 302 301 304 304 303 303 305 304 304 305 303 301 302 304 306 306 307 307 307 305 302 301 301 304 306 309 311 307 304 302 303 306 302
300 308 312 311 309 309 308 308 309 311 311 308 307 305 304 302 302 301 303 304 301 302 303 303 303 303 302 304 307 307 307 305 307 307 306 306 304 306 307 308 307 306 303 302 309 306 302
296 307 312 311 309 309 309 308 309 311 311 309 308 308 306 304 304 302 302 302 301 301 304 302 304 302 302 305 305 305 305 306 306 304 306 307 306 307 306 309 310 302 302 307 303 302 302
294 296 307 311 309 309 308 308 309 310 312 310 308 308 306 305 305 306 305 304 304 303 301 301 304 303 304 304 303 303 306 304 306 309 303 307 306 307 307 308 305 301 301 300 300 301 302
Wind_Speed
11 12 12 13 15 15 15 15 15 15 13 11 11 8 7 7 8 10 11 12 11 10 9 9 10 11 4 4 2 10 13 10 5 3 1 0 2 2 3 4 2 4 3 5 5 5 5
10 11 12 13 14 15 16 17 16 16 15 13 11 10 9 9 10 11 10 10 11 9 7 9 9 10 4 4 9 10 12 9 9 1 1 2 1 4 0 2 3 1 2 6 7 5 5
10 11 12 12 14 15 16 17 17 17 17 15 11 10 9 10 11 11 11 10 9 8 7 7 9 7 2 3 9 8 9 7 8 4 2 2 2 2 3 5 2 2 4 6 9 4 5
11 11 12 13 14 16 17 18 19 19 19 17 13 9 10 11 12 11 11 10 9 10 7 5 6 3 3 5 8 7 7 4 8 5 4 4 2 2 1 1 3 3 2 2 6 9 7
10 11 12 13 14 15 17 18 19 20 20 19 15 9 11 12 11 10 9 9 10 5 7 3 2 2 6 8 6 6 6 2 3 3 6 2 2 3 3 1 3 2 1 2 10 10 6
10 11 12 13 14 15 16 18 20 21 22 22 15 8 11 12 10 8 6 6 5 2 2 2 2 3 3 4 8 7 2 0 0 2 1 2 2 2 1 2 2 3 3 2 7 4 4
9 10 11 12 13 14 16 18 20 22 24 25 15 8 11 11 9 5 3 2 4 3 3 1 1 3 5 9 5 3 1 1 3 1 2 2 1 1 6 5 7 3 3 5 2 2 3
9 10 10 11 12 14 16 17 20 22 23 26 16 8 11 9 5 2 1 4 4 2 3 4 3 5 7 1 3 3 2 2 2 3 2 2 3 3 6 8 7 6 4 4 2 3 2
9 10 10 11 11 14 15 17 19 21 23 25 16 7 9 5 3 2 3 4 3 2 2 4 4 3 5 1 2 5 3 0 1 4 3 1 5 6 4 2 2 3 3 2 1 3 4
9 10 11 11 12 13 15 17 19 20 22 24 15 7 7 3 1 2 3 2 2 3 4 5 3 2 2 1 3 3 0 0 2 3 4 4 5 5 4 3 2 2 6 3 2 3 2
10 11 12 12 13 13 15 17 18 20 22 24 12 6 5 4 3 2 2 1 1 1 4 4 6 2 2 2 3 2 1 1 2 4 2 5 5 5 3 3 3 0 3 2 2 4 3
12 12 12 12 13 14 15 17 18 20 21 23 10 4 4 2 2 3 2 2 2 6 4 5 4 5 4 3 3 6 4 4 2 3 3 5 2 2 3 3 2 3 2 6 4 3 3
13 14 14 13 13 14 15 17 19 20 20 21 7 3 5 3 2 3 3 3 5 5 2 4 3 5 3 3 5 6 4 5 4 6 6 7 3 2 1 1 1 3 4 3 4 3 4
15 15 15 15 14 14 15 16 18 20 21 17 5 2 5 5 4 3 2 5 5 3 4 2 2 4 3 3 1 6 2 3 1 4 1 3 7 1 2 1 4 2 5 4 3 2 3
19 17 17 16 16 14 15 16 18 20 22 15 3 2 2 3 3 3 5 4 6 5 1 3 4 2 3 1 1 3 3 1 3 1 4 3 5 4 2 4 3 2 2 3 5 2 2
22 21 19 17 17 15 15 15 16 19 21 12 2 1 2 3 3 3 4 3 2 3 3 2 0 1 2 4 5 3 2 1 2 1 1 4 3 1 4 3 3 2 1 3 3 1 3
25 24 21 20 18 16 15 15 15 17 20 8 1 2 1 3 3 4 2 4 4 4 2 3 4 2 4 3 1 2 3 3 2 2 2 1 0 5 1 2 4 3 2 2 3 3 1
27 28 26 23 20 17 16 15 13 16 18 5 2 2 1 4 2 1 2 4 1 3 2 3 2 5 4 1 3 2 3 5 3 2 1 0 3 4 5 1 0 2 2 3 3 1 2
32 30 28 27 24 19 16 16 13 11 14 7 1 2 1 1 1 2 3 2 3 3 4 3 3 5 3 3 1 3 3 1 4 4 2 3 1 4 6 4 1 1 0 3 3 3 4
34 31 31 28 26 23 20 15 12 9 10 4 1 2 2 3 1 4 2 2 2 3 3 3 3 1 1 3 5 3 2 1 2 2 4 2 2 5 5 5 2 4 2 2 3 2 1
37 35 33 31 29 25 22 18 14 9 7 3 1 3 1 2 3 3 3 1 2 2 3 3 2 5 6 3 2 4 3 3 1 1 2 2 3 3 6 9 4 5 6 5 7 5 4
43 39 37 34 30 28 23 21 17 11 7 4 3 3 1 1 2 3 4 5 7 3 6 4 5 1 6 5 6 5 3 3 3 1 0 2 2 3 5 0 4 5 7 8 5 4 8
43 45 40 35 32 30 27 23 19 13 9 6 4 2 3 2 3 3 5 6 7 5 4 3 6 3 4 8 5 4 3 1 2 4 2 1 1 3 5 4 7 6 5 6 4 4 5
33 48 46 39 34 31 29 26 22 18 16 7 4 4 3 4 4 5 4 5 7 6 3 2 5 4 1 2 3 1 0 3 3 4 3 4 2 1 4 5 2 4 2 4 6 5 8
31 39 50 44 38 33 32 29 25 22 18 15 7 4 3 3 4 4 6 5 2 1 3 3 4 2 2 3 1 4 2 1 2 0 3 2 3 1 1 2 6 2 1 3 2 5 6
33 37 53 48 42 37 35 32 28 25 21 17 13 12 2 3 6 4 4 6 5 3 2 3 1 2 4 2 1 3 4 3 3 1 3 4 3 3 1 1 4 1 1 2 2 5 2
40 35 55 50 44 40 37 33 30 27 24 21 8 16 3 2 3 4 4 5 5 2 2 1 3 2 2 2 3 4 4 2 3 5 4 2 1 4 3 3 7 2 2 2 2 5 1
39 26 50 48 44 41 38 34 30 29 27 25 10 17 9 3 4 5 4 5 3 3 4 4 2 0 2 3 3 3 4 3 1 3 5 5 5 3 2 2 5 4 2 3 3 4 3
37 37 13 44 41 38 37 34 31 31 30 27 10 17 20 3 3 5 10 8 6 8 5 3 2 4 4 3 1 0 3 1 3 2 1 2 3 1 6 4 1 3 3 3 1 3 5
Wind_Direction
33 31 24 23 14 10 7 7 3 358 350 344 335 319 305 304 306 316 330 343 353 357 0 357 358 357 5 29 291 341 341 351 347 315 277 40 298 241 191 167 250 240 281 277 277 303 258
30 27 25 14 13 5 6 6 1 359 354 342 334 324 305 297 295 302 314 328 347 347 348 350 349 358 24 27 339 341 347 4 5 293 322 185 216 281 36 232 198 254 342 312 291 278 295
28 25 21 16 9 3 4 1 358 360 354 344 331 322 312 301 291 290 299 311 332 328 336 337 344 355 33 262 340 350 3 16 18 34 19 353 314 260 112 346 327 257 279 326 282 206 246
23 18 16 13 9 2 1 1 358 357 356 349 336 325 320 307 298 284 287 299 312 318 310 324 344 357 261 316 336 355 0 9 26 43 57 16 19 126 200 126 245 226 97 28 275 169 249
18 17 14 10 7 2 359 359 360 358 356 350 343 329 329 318 306 286 279 294 315 316 295 284 336 45 313 330 331 343 2 17 40 59 55 5 29 34 329 202 288 235 195 195 312 191 173
19 16 14 12 4 1 357 1 2 360 356 352 347 336 334 326 315 290 279 295 315 314 348 262 299 52 333 302 315 325 354 340 16 82 324 22 55 324 224 172 244 254 249 159 250 176 179
8 9 13 10 2 358 0 1 360 359 356 354 351 339 341 336 319 295 293 286 19 341 40 155 255 206 282 320 315 298 317 97 143 0 338 277 305 241 206 209 246 248 247 206 293 162 137
354 356 8 3 3 359 360 360 358 358 356 357 353 345 346 349 348 325 336 93 115 176 325 237 260 280 275 304 318 293 309 40 50 304 313 13 264 215 242 255 265 287 195 331 63 73 124
343 346 348 357 3 -0 360 358 357 357 355 356 356 349 352 357 32 20 42 94 90 87 92 294 236 264 270 167 277 279 17 350 245 319 348 162 270 319 197 224 101 350 43 320 242 141 59
330 336 337 346 354 359 358 357 356 356 354 355 356 349 0 351 75 68 38 47 84 100 61 292 341 308 291 222 295 247 167 28 343 309 330 275 314 356 4 43 356 61 330 281 89 42 148
321 325 329 336 343 352 356 356 354 354 354 352 354 356 14 35 109 78 118 14 65 75 33 283 298 275 313 280 314 349 6 45 321 302 61 270 316 356 348 326 311 235 337 19 77 71 48
315 318 320 327 335 343 350 354 354 354 353 350 352 14 17 29 48 108 123 116 350 44 275 337 300 343 20 333 313 318 21 29 251 313 280 258 275 203 236 287 265 323 64 34 48 69 22
305 315 317 320 325 334 341 350 352 352 353 351 355 51 39 40 74 116 123 57 33 102 281 307 324 357 324 299 326 17 9 20 44 19 357 329 259 261 229 325 138 136 72 359 13 9 219
298 303 314 315 316 324 333 344 348 350 352 351 351 121 59 80 112 122 81 54 58 249 252 320 328 307 281 6 317 346 26 26 115 106 39 5 337 31 8 285 186 129 137 151 221 207 259
292 295 302 308 306 313 323 334 343 347 349 348 331 159 91 83 125 138 74 58 204 200 216 322 319 329 309 345 239 14 352 240 255 164 134 30 288 333 30 4 13 29 61 167 104 29 47
287 286 292 297 299 302 313 325 337 343 349 345 312 162 76 122 131 105 76 235 220 228 163 134 227 139 285 301 351 47 319 252 292 236 308 211 307 260 288 54 54 59 155 18 14 219 279
282 284 286 289 290 290 301 314 329 339 349 343 309 39 144 144 136 55 140 226 240 228 206 162 192 234 234 281 247 281 252 258 195 303 204 286 5 286 12 104 173 355 356 17 144 113 172
284 279 281 282 282 281 291 303 322 334 349 349 39 345 142 161 41 83 169 197 237 202 169 269 236 210 208 219 270 268 246 218 168 168 215 219 159 274 250 61 219 300 185 137 115 278 169
279 278 273 276 275 274 276 291 306 328 347 329 324 250 144 180 211 279 258 265 221 193 206 189 249 220 192 218 274 216 259 167 167 170 187 181 294 334 348 4 347 28 195 117 99 32 209
273 272 269 269 269 269 270 273 285 305 327 325 45 318 324 64 318 152 189 239 262 202 253 192 222 181 221 249 214 271 276 244 199 169 142 134 177 194 207 219 195 292 231 180 131 111 239
267 267 265 264 263 262 261 266 269 278 303 220 103 249 240 245 250 176 172 213 201 261 213 201 239 211 194 254 249 239 225 311 146 106 97 119 252 184 253 253 237 240 231 194 194 204 187
260 260 261 260 257 254 251 255 261 263 270 225 183 168 10 209 328 171 206 223 191 227 171 220 209 185 196 222 208 220 204 194 208 126 68 348 268 2 289 85 196 266 237 226 228 226 260
254 257 254 252 247 250 247 246 247 247 247 227 188 183 120 235 146 134 231 211 195 167 210 194 197 182 216 234 226 239 230 272 195 167 166 80 -0 22 270 342 314 300 233 188 191 197 174
272 245 250 244 239 238 241 242 238 236 234 256 219 151 118 255 185 198 218 204 208 207 222 206 175 166 218 80 84 41 121 249 229 239 166 146 134 148 274 333 357 259 116 184 207 235 214
283 253 239 240 233 231 232 234 237 234 230 235 233 202 157 232 194 244 219 216 196 151 216 220 225 160 91 64 358 320 300 290 217 6 181 157 124 245 261 270 286 56 250 167 176 295 201
294 267 233 236 228 227 230 226 228 231 227 227 234 218 170 138 235 150 153 189 195 193 311 217 97 113 78 100 129 228 239 245 211 154 54 82 90 136 174 224 255 62 159 210 196 307 175
341 267 226 226 223 224 224 226 226 225 222 220 219 205 172 198 247 156 185 176 148 132 168 275 173 125 51 139 196 208 250 208 238 186 170 153 151 196 209 253 288 268 174 175 63 253 186
353 339 216 220 220 221 221 219 225 226 219 213 218 211 196 195 268 205 210 146 121 160 159 173 99 305 84 175 188 215 206 231 265 177 177 174 158 200 134 199 291 160 94 183 244 309 300
1 13 308 215 218 219 219 220 222 226 221 214 217 205 205 192 250 243 237 225 192 181 143 176 235 157 173 122 189 49 239 222 201 240 104 240 194 186 202 233 320 219 251 268 233 290 333